Terminal Aerodrome Forecast
Issued by NWS

Home | Current Version | Previous Version | Text Only | Print | Product List | Glossary Off
Versions: 1 2 3 4 5 6 7 8 9 10 11 12 13 14 15 16 17 18 19 20 21 22 23

000
FTUS43 KFGF 220324 AAA
TAFBJI
TAF AMD
KBJI 220324Z 2203/2224 14013KT P6SM -SHRA BKN050
     FM220500 15006KT P6SM VCTS BKN060CB
     FM220900 14005KT P6SM BKN025
     FM221000 14005KT P6SM BKN008
     FM221300 14005KT P6SM BKN003
     FM222300 13007KT P6SM BKN045=

USA.gov is the U.S. government's official web portal to all federal, state and local government web resources and services.